Back to catalog

USA 237

AliveMilitaryGEO
NORAD 38528·PAYLOAD·🇺🇸 United States

Launched Jun 29, 2012 from Cape Canaveral Space Force Station

Loading…

TLE

FreshSource: Mike McCants

Epoch: Sep 14, 2026, 04:23 UTC

1 38528U 12034A   26257.18264212  .00000000  00000-0  00000-0 0    07
2 38528   7.5407  58.9720 0041082 338.0082  21.8176  1.00271606  2630

Track USA 237 in real time with AllMySat

Download on the App Store